Location: Titusville
(28.6120°N, 80.8080°W)
Time: 06:18:26
(UTC-05:00)

Amateur Radio Satellites - All Passes

Search period start: 13 December 2017 05:48
Search period end: 14 December 2017 05:48
Location: Titusville, 28.6120°N, 80.8080°W

Satellite Date Start Highest point End Downlink Frequencies (MHz)
Time Altitude Azimuth
CUTE-I 13 Dec 05:48:43 05:52:55 23° 97° (E) 05:57:06 437.470
SRMSAT 13 Dec 05:54:42 05:58:29 17° 162° (SSE) 06:02:17 437.500
XW-2D 13 Dec 06:02:41 06:06:22 44° 99° (E) 06:10:01 145.860 - 145.880
NUDT-PHONESAT 13 Dec 06:15:22 06:18:54 39° 99° (E) 06:22:25 437.300
KAITUO 1B 13 Dec 06:15:45 06:19:23 43° 99° (E) 06:22:58 145.475/437.950
XW-2B 13 Dec 06:18:21 06:22:11 72° 100° (E) 06:26:00 145.730 - 145.750
PCSat 13 Dec 06:22:43 06:26:13 18° 255° (WSW) 06:29:42 145.827
DOVE 4 13 Dec 06:31:14 06:32:56 12° 292° (WNW) 06:34:35 437.250
XW-2F 13 Dec 06:32:05 06:35:55 76° 282° (WNW) 06:39:43 145.980 - 146.000
FO-29 13 Dec 06:38:02 06:42:22 16° 62° (ENE) 06:46:46 435.910
CUTE 1.7 + AOD 2 13 Dec 06:38:11 06:41:44 25° 97° (E) 06:45:14 437.475
BEESAT 3 13 Dec 06:39:17 06:43:02 49° 247° (WSW) 06:46:43 437.485
XW-2C 13 Dec 06:45:47 06:49:26 42° 284° (WNW) 06:53:04 145.795 - 145.815
NO-84 13 Dec 06:48:20 06:51:10 50° 311° (NW) 06:54:11 435.350 FM
JUGNU 13 Dec 06:58:22 07:03:41 35° 183° (S) 07:09:02 437.505
STRAND 1 13 Dec 07:03:09 07:08:14 68° 76° (ENE) 07:13:19 437.568
CUBEBUG 2 13 Dec 07:07:02 07:10:54 32° 98° (E) 07:14:51 437.445
UWE-3 13 Dec 07:11:11 07:14:17 19° 96° (E) 07:17:27 435.000/436.395/437.385
BEESAT 2 13 Dec 07:14:38 07:18:39 86° 242° (WSW) 07:22:34 435.950
HO-68 13 Dec 07:16:16 07:23:24 69° 103° (ESE) 07:30:30 435.675
XW-2A 13 Dec 07:19:02 07:20:57 14° 96° (E) 07:22:53 145.665 - 145.685
LilacSat-2 13 Dec 07:21:19 07:23:23 14° 289° (WNW) 07:25:27 437.200
CUTE-I 13 Dec 07:28:15 07:32:53 31° 289° (WNW) 07:37:29 437.470
O/OREOS (USA 219) 13 Dec 07:30:37 07:32:16 12° 99° (E) 07:33:56 437.305
ZACube-1 13 Dec 07:40:05 07:43:24 21° 97° (E) 07:46:46 437.345
SRMSAT 13 Dec 07:42:00 07:47:11 30° 171° (S) 07:52:22 437.500
AO-85 13 Dec 07:47:13 07:52:05 55° 62° (ENE) 07:57:13 145.980
SEEDS 13 Dec 07:53:47 07:57:56 58° 284° (WNW) 08:02:04 437.485
Oscar 11 13 Dec 08:02:57 08:06:15 21° 96° (E) 08:09:31 .
CUTE 1.7 + AOD 2 13 Dec 08:14:18 08:17:19 19° 289° (WNW) 08:20:19 437.475
AO-73 13 Dec 08:14:19 08:18:35 49° 100° (E) 08:22:54 145.935
AAUSAT CUBESAT 2 13 Dec 08:17:59 08:22:08 76° 284° (WNW) 08:26:15 437.432
FO-29 13 Dec 08:18:48 08:26:18 84° 258° (WSW) 08:34:14 435.910
CUBEBUG 2 13 Dec 08:44:44 08:47:13 15° 289° (WNW) 08:49:43 437.445
UWE-3 13 Dec 08:47:01 08:50:37 26° 287° (WNW) 08:54:18 435.000/436.395/437.385
JUGNU 13 Dec 08:47:32 08:52:16 25° 193° (SSW) 08:57:03 437.505
XW-2A 13 Dec 08:51:01 08:53:30 19° 287° (WNW) 08:56:00 145.665 - 145.685
HO-68 13 Dec 09:06:03 09:10:22 17° 297° (WNW) 09:14:42 435.675
O/OREOS (USA 219) 13 Dec 09:06:50 09:11:12 43° 291° (WNW) 09:15:34 437.305
TIGRISAT 13 Dec 09:13:53 09:18:00 43° 75° (ENE) 09:22:04 435.000
ZACube-1 13 Dec 09:16:01 09:19:32 24° 287° (WNW) 09:23:07 437.345
UNISAT 6 13 Dec 09:16:33 09:20:47 53° 76° (ENE) 09:24:58 437.425
AO-85 13 Dec 09:29:40 09:32:08 14° 252° (WSW) 09:34:39 145.980
SRMSAT 13 Dec 09:30:33 09:36:00 36° 181° (S) 09:41:26 437.500
DELFI C3 13 Dec 09:35:43 09:39:32 48° 100° (E) 09:43:18 145.870
Oscar 11 13 Dec 09:38:46 09:42:14 23° 288° (WNW) 09:45:41 .
AO-73 13 Dec 09:53:23 09:54:20 11° 291° (WNW) 09:55:16 145.935
Max Valier Satellite 13 Dec 10:06:21 10:10:05 89° 67° (ENE) 10:13:49 145.860
FO-29 13 Dec 10:09:57 10:12:04 11° 271° (W) 10:14:12 435.910
PRISM 13 Dec 10:25:49 10:29:58 78° 259° (WSW) 10:34:08 437.425
EO-88 13 Dec 10:38:24 10:41:55 46° 284° (WNW) 10:45:26 145.990 - 145.960
JUGNU 13 Dec 10:38:46 10:40:47 12° 200° (SSW) 10:42:48 437.505
POLYITAN 1 13 Dec 10:39:38 10:41:13 12° 69° (ENE) 10:42:47 437.675
AIST 2D 13 Dec 10:53:48 10:57:15 71° 78° (ENE) 11:00:44 435.315
TIGRISAT 13 Dec 10:54:02 10:54:47 10° 266° (W) 10:55:31 435.000
QB50P2 13 Dec 11:02:59 11:06:34 28° 73° (ENE) 11:10:08 145.880/145.840
nSIGHT-1 13 Dec 11:09:01 11:12:13 80° 129° (SE) 11:15:25 .
DUCHIFAT 1 13 Dec 11:11:05 11:14:20 22° 72° (ENE) 11:17:35 145.980
LO-87 13 Dec 11:14:08 11:17:29 41° 99° (E) 11:20:50 145.935 - 145.965
SRMSAT 13 Dec 11:19:44 11:24:46 28° 191° (S) 11:29:48 437.500
ESTCUBE 1 13 Dec 11:30:01 11:34:24 48° 100° (E) 11:38:47 437.505/2401.250
NANOSAT C BR1 13 Dec 11:35:38 11:39:44 57° 76° (ENE) 11:43:49 145.865
ISS 13 Dec 11:45:14 11:48:25 48° 315° (NW) 11:51:36 437.550
EO-79 13 Dec 11:49:47 11:53:59 79° 260° (W) 11:58:09 145.935-145.965
BUGSAT 1 13 Dec 11:58:32 12:01:10 17° 71° (ENE) 12:03:47 437.445
AO-91 13 Dec 12:04:46 12:06:54 13° 70° (ENE) 12:08:58 145.960
POLYITAN 1 13 Dec 12:12:40 12:16:34 38° 261° (W) 12:20:29 437.675
SPROUT 13 Dec 12:26:55 12:31:00 47° 100° (E) 12:35:05 437.525
QB50P2 13 Dec 12:39:40 12:42:16 16° 264° (W) 12:44:54 145.880/145.840
DUCHIFAT 1 13 Dec 12:46:49 12:49:51 20° 263° (W) 12:52:53 145.980
Oscar 19 13 Dec 12:58:38 13:03:36 54° 75° (ENE) 13:08:36 437.125/150
ESTCUBE 1 13 Dec 13:09:15 13:10:42 11° 292° (WNW) 13:12:09 437.505/2401.250
SRMSAT 13 Dec 13:10:17 13:13:27 15° 199° (SSW) 13:16:36 437.500
VELOX 1 13 Dec 13:10:17 13:14:42 88° 282° (WNW) 13:19:04 145.980
Gurwin Techsat 1B 13 Dec 13:28:14 13:33:32 78° 76° (ENE) 13:38:52 435.225
RS-15 13 Dec 13:30:39 13:41:10 35° 105° (ESE) 13:51:41 29.354- 29.394
BUGSAT 1 13 Dec 13:32:54 13:36:16 25° 262° (W) 13:39:37 437.445
AO-91 13 Dec 13:37:54 13:42:58 53° 259° (W) 13:47:38 145.960
AO-7 13 Dec 13:47:54 13:54:08 24° 62° (ENE) 14:00:22 .
UKube-1 13 Dec 13:58:28 14:02:23 33° 99° (E) 14:06:15 .
YUBILEINY 13 Dec 14:00:24 14:08:22 37° 78° (ENE) 14:16:13 435.215
SPROUT 13 Dec 14:06:10 14:06:24 10° 292° (WNW) 14:06:38 437.525
DX 1 13 Dec 14:10:41 14:15:02 89° 96° (E) 14:19:21 434.975-435.025
ITAMSAT 1 13 Dec 14:11:06 14:12:55 12° 66° (ENE) 14:14:44 435.822/435.867
50 SAT 13 Dec 14:26:47 14:29:38 33° 285° (WNW) 14:32:29 437.505
Oscar 19 13 Dec 14:41:08 14:43:07 12° 266° (W) 14:45:06 437.125/150
M-CUBED/EXP-1 PRIME 13 Dec 14:44:54 14:48:54 49° 70° (ENE) 14:53:11 437.505
MOZHAYETS 4 13 Dec 14:53:48 14:57:49 29° 98° (E) 15:01:50
NO-84 13 Dec 15:02:13 15:06:06 49° 49° (NE) 15:10:09 435.350 FM
BEESAT 13 Dec 15:02:28 15:06:16 23° 97° (E) 15:10:03 436.000
SO-50 13 Dec 15:02:46 15:06:52 37° 112° (ESE) 15:10:59 436.795
ITUPSAT 1 13 Dec 15:29:08 15:33:45 47° 100° (E) 15:38:20 437.325
UKube-1 13 Dec 15:35:39 15:38:01 15° 291° (WNW) 15:40:24 .
AO-7 13 Dec 15:38:05 15:46:14 61° 256° (WSW) 15:54:26 .
RS-15 13 Dec 15:41:01 15:53:00 58° 301° (WNW) 16:05:04 29.354- 29.394
ITAMSAT 1 13 Dec 15:46:37 15:51:46 63° 258° (WSW) 15:56:57 435.822/435.867
DOVE 4 13 Dec 15:49:44 15:53:53 24° 71° (ENE) 15:57:59 437.250
YUBILEINY 13 Dec 15:57:07 16:04:56 37° 273° (W) 16:12:43 435.215
CUBESAT XI-V 13 Dec 16:13:00 16:17:36 51° 100° (E) 16:22:08 437.345
MOZHAYETS 4 13 Dec 16:31:26 16:34:42 19° 290° (WNW) 16:37:59
BEESAT 13 Dec 16:40:01 16:43:53 25° 289° (WNW) 16:47:45 436.000
NO-84 13 Dec 16:41:06 16:43:05 13° 239° (WSW) 16:45:06 435.350 FM
SO-50 13 Dec 16:44:38 16:47:24 16° 306° (NW) 16:50:12 436.795
KKS-1 13 Dec 16:53:35 16:57:01 22° 97° (E) 17:00:26 437.445
XW-2B 13 Dec 16:54:42 16:56:28 13° 71° (ENE) 16:58:13 145.730 - 145.750
CUTE-I 13 Dec 17:04:23 17:08:19 21° 69° (ENE) 17:12:14 437.470
XW-2F 13 Dec 17:07:04 17:09:38 18° 72° (ENE) 17:12:14 145.980 - 146.000
ITUPSAT 1 13 Dec 17:08:55 17:11:05 13° 293° (WNW) 17:13:15 437.325
XW-2C 13 Dec 17:20:17 17:23:36 30° 74° (ENE) 17:26:56 145.795 - 145.815
DOVE 4 13 Dec 17:26:37 17:31:17 32° 263° (W) 17:35:56 437.250
PCSat 13 Dec 17:32:22 17:35:08 14° 104° (ESE) 17:37:54 145.827
HO-68 13 Dec 17:38:40 17:44:22 26° 66° (ENE) 17:50:03 435.675
STARS 13 Dec 17:39:57 17:43:42 28° 98° (E) 17:47:26 437.465
CUBESAT XI-V 13 Dec 17:52:48 17:54:26 12° 292° (WNW) 17:56:04 437.345
LilacSat-2 13 Dec 17:54:33 17:58:19 74° 259° (W) 18:02:08 437.200
CUBEBUG 2 13 Dec 18:00:53 18:02:26 12° 70° (ENE) 18:03:59 437.445
RS-15 13 Dec 18:03:02 18:08:49 14° 326° (NW) 18:14:35 29.354- 29.394
XW-2D 13 Dec 18:10:50 18:14:25 43° 261° (W) 18:18:03 145.860 - 145.880
NUDT-PHONESAT 13 Dec 18:20:49 18:24:23 52° 260° (W) 18:28:00 437.300
KAITUO 1B 13 Dec 18:22:19 18:25:54 46° 261° (W) 18:29:30 145.475/437.950
XW-2B 13 Dec 18:27:04 18:30:18 27° 262° (W) 18:33:34 145.730 - 145.750
KKS-1 13 Dec 18:29:57 18:33:24 23° 289° (WNW) 18:36:51 437.445
SEEDS 13 Dec 18:38:29 18:42:21 37° 75° (ENE) 18:46:16 437.485
XW-2F 13 Dec 18:40:48 18:43:32 19° 264° (W) 18:46:18 145.980 - 146.000
CUTE-I 13 Dec 18:43:08 18:48:02 36° 261° (W) 18:52:57 437.470
XW-2C 13 Dec 18:56:33 18:57:47 11° 266° (W) 18:59:01 145.795 - 145.815
CUTE 1.7 + AOD 2 13 Dec 18:58:43 19:02:53 63° 259° (W) 19:07:07 437.475
AAUSAT CUBESAT 2 13 Dec 19:01:28 19:05:00 27° 73° (ENE) 19:08:33 437.432
AO-73 13 Dec 19:04:44 19:07:12 16° 71° (ENE) 19:09:39 145.935
PCSat 13 Dec 19:12:44 19:17:59 53° 296° (WNW) 19:23:17 145.827
XW-2A 13 Dec 19:14:32 19:17:38 37° 76° (ENE) 19:20:45 145.665 - 145.685
STARS 13 Dec 19:16:52 19:19:46 18° 290° (WNW) 19:22:39 437.465
nSIGHT-1 13 Dec 19:16:57 19:20:02 41° 45° (NE) 19:23:04 .
STRAND 1 13 Dec 19:20:32 19:25:19 40° 100° (E) 19:30:04 437.568
O/OREOS (USA 219) 13 Dec 19:23:20 19:27:47 69° 254° (WSW) 19:32:12 437.305
HO-68 13 Dec 19:24:50 19:31:40 47° 259° (W) 19:38:33 435.675
CUBEBUG 2 13 Dec 19:34:41 19:38:41 39° 261° (W) 19:42:37 437.445
UWE-3 13 Dec 19:36:34 19:40:45 75° 258° (WSW) 19:44:54 435.000/436.395/437.385
FO-29 13 Dec 19:39:13 19:43:33 19° 92° (E) 19:47:34 435.910
ISS 13 Dec 19:54:22 19:57:38 88° 225° (SW) 20:00:54 437.550
ZACube-1 13 Dec 20:04:16 20:08:24 70° 260° (W) 20:12:31 437.345
DELFI C3 13 Dec 20:16:29 20:17:48 11° 70° (ENE) 20:19:09 145.870
SEEDS 13 Dec 20:16:31 20:18:06 12° 266° (W) 20:19:41 437.485
BEESAT 3 13 Dec 20:21:44 20:25:38 60° 298° (WNW) 20:29:36 437.485
Oscar 11 13 Dec 20:25:41 20:29:58 72° 258° (WSW) 20:34:16 .
FALCONSAT 3 13 Dec 20:27:02 20:28:21 12° 144° (SE) 20:29:39 435.103
AAUSAT CUBESAT 2 13 Dec 20:37:48 20:40:23 16° 265° (W) 20:42:58 437.432
AO-73 13 Dec 20:39:37 20:43:09 27° 262° (W) 20:46:41 145.935
Max Valier Satellite 13 Dec 20:40:04 20:41:56 14° 71° (ENE) 20:43:49 145.860
BEESAT 2 13 Dec 20:58:49 21:02:47 84° 115° (ESE) 21:06:49 435.950
STRAND 1 13 Dec 21:00:52 21:04:06 17° 292° (WNW) 21:07:21 437.568
EO-88 13 Dec 21:09:35 21:12:29 23° 73° (ENE) 21:15:23 145.990 - 145.960
TIGRISAT 13 Dec 21:12:42 21:15:21 16° 96° (E) 21:18:03 435.000
UNISAT 6 13 Dec 21:15:15 21:18:23 19° 96° (E) 21:21:33 437.425
FO-29 13 Dec 21:22:32 21:28:58 49° 288° (WNW) 21:34:38 435.910
DELFI C3 13 Dec 21:48:28 21:52:09 36° 261° (W) 21:55:51 145.870
AO-85 13 Dec 21:55:51 21:59:41 83° 114° (ESE) 22:03:39 145.980
FALCONSAT 3 13 Dec 22:03:23 22:07:02 67° 154° (SSE) 22:10:41 435.103
Max Valier Satellite 13 Dec 22:12:31 22:15:28 23° 263° (W) 22:18:27 145.860
PRISM 13 Dec 22:14:10 22:17:25 23° 97° (E) 22:20:39 437.425
ESTCUBE 1 13 Dec 22:23:41 22:26:58 20° 71° (ENE) 22:30:16 437.505/2401.250
RS-15 13 Dec 22:41:23 22:49:55 22° 43° (NE) 22:58:05 29.354- 29.394
EO-88 13 Dec 22:44:08 22:46:01 14° 265° (W) 22:47:55 145.990 - 145.960
TIGRISAT 13 Dec 22:48:09 22:52:00 31° 286° (WNW) 22:55:56 435.000
UNISAT 6 13 Dec 22:51:20 22:54:59 26° 287° (WNW) 22:58:40 437.425
SPROUT 13 Dec 23:14:50 23:17:21 16° 70° (ENE) 23:19:53 437.525
LO-87 13 Dec 23:16:11 23:19:39 52° 260° (W) 23:23:06 145.935 - 145.965
NANOSAT C BR1 13 Dec 23:27:34 23:30:04 15° 96° (E) 23:32:32 145.865
EO-79 13 Dec 23:41:13 23:44:48 27° 98° (E) 23:48:23 145.935-145.965
FALCONSAT 3 13 Dec 23:42:51 23:46:16 35° 348° (NNW) 23:49:40 435.103
PRISM 13 Dec 23:49:37 23:52:28 19° 289° (WNW) 23:55:18 437.425
AIST 2D 13 Dec 23:58:00 00:01:14 33° 285° (WNW) 00:04:27 435.315
ESTCUBE 1 13 Dec 23:59:46 00:03:32 26° 263° (W) 00:07:20 437.505/2401.250
VELOX 1 14 Dec 00:00:48 00:04:49 34° 73° (ENE) 00:08:51 145.980
POLYITAN 1 14 Dec 00:03:28 00:07:35 53° 100° (E) 00:11:44 437.675
QB50P2 14 Dec 00:29:04 00:33:13 59° 284° (WNW) 00:37:22 145.880/145.840
DUCHIFAT 1 14 Dec 00:35:42 00:39:54 77° 282° (WNW) 00:44:05 145.980
50 SAT 14 Dec 00:46:54 00:48:58 16° 73° (ENE) 00:51:03 437.505
UKube-1 14 Dec 00:48:09 00:50:03 13° 68° (ENE) 00:51:57 .
SPROUT 14 Dec 00:49:12 00:52:56 30° 262° (W) 00:56:41 437.525
RS-15 14 Dec 00:52:17 01:03:57 90° 245° (WSW) 01:14:59 29.354- 29.394
DX 1 14 Dec 00:59:40 01:03:32 31° 73° (ENE) 01:07:25 434.975-435.025
NANOSAT C BR1 14 Dec 01:02:04 01:05:42 29° 287° (WNW) 01:09:22 145.865
Oscar 19 14 Dec 01:17:06 01:21:46 33° 99° (E) 01:26:25 437.125/150
EO-79 14 Dec 01:17:32 01:20:17 17° 289° (WNW) 01:23:02 145.935-145.965
SO-50 14 Dec 01:19:46 01:24:29 75° 63° (ENE) 01:29:13 436.795
BUGSAT 1 14 Dec 01:19:59 01:24:00 73° 101° (E) 01:28:05 437.445
FALCONSAT 3 14 Dec 01:22:38 01:25:50 27° 3° (N) 01:29:02 435.103
AO-91 14 Dec 01:35:09 01:38:24 43° 100° (E) 01:41:38 145.960
VELOX 1 14 Dec 01:38:46 01:41:16 15° 265° (W) 01:43:47 145.980
MOZHAYETS 4 14 Dec 01:50:53 01:53:00 13° 68° (ENE) 01:55:06
Gurwin Techsat 1B 14 Dec 01:51:18 01:56:30 54° 100° (E) 02:01:40 435.225
BEESAT 14 Dec 02:03:55 02:06:09 13° 68° (ENE) 02:08:23 436.000
50 SAT 14 Dec 02:19:04 02:20:45 14° 264° (W) 02:22:28 437.505
UKube-1 14 Dec 02:21:36 02:25:39 39° 261° (W) 02:29:42 .
ITUPSAT 1 14 Dec 02:29:45 02:33:40 26° 71° (ENE) 02:37:36 437.325
DX 1 14 Dec 02:37:04 02:39:41 16° 264° (W) 02:42:19 434.975-435.025
YUBILEINY 14 Dec 02:52:15 03:00:41 52° 90° (E) 03:09:07 435.215
Oscar 19 14 Dec 02:56:55 03:00:48 22° 291° (WNW) 03:04:41 437.125/150
FALCONSAT 3 14 Dec 03:01:41 03:05:18 54° 19° (NNE) 03:08:54 435.103
JUGNU 14 Dec 03:07:02 03:11:22 21° 165° (SSE) 03:15:43 437.505
RS-15 14 Dec 03:08:53 03:14:36 15° 260° (W) 03:20:14 29.354- 29.394
CUBESAT XI-V 14 Dec 03:10:11 03:13:50 23° 71° (ENE) 03:17:30 437.345
MOZHAYETS 4 14 Dec 03:25:25 03:29:42 42° 261° (W) 03:34:01
Gurwin Techsat 1B 14 Dec 03:33:16 03:35:54 14° 293° (WNW) 03:38:33 435.225
BEESAT 14 Dec 03:38:55 03:43:27 46° 260° (W) 03:48:01 436.000
AO-7 14 Dec 03:46:59 03:55:21 73° 105° (ESE) 04:03:41 .
M-CUBED/EXP-1 PRIME 14 Dec 04:03:43 04:08:08 75° 288° (WNW) 04:12:14 437.505
ITAMSAT 1 14 Dec 04:06:07 04:11:18 82° 103° (ESE) 04:16:28 435.822/435.867
PCSat 14 Dec 04:07:31 04:12:16 30° 60° (ENE) 04:16:59 145.827
ITUPSAT 1 14 Dec 04:07:40 04:11:22 22° 263° (W) 04:15:04 437.325
STARS 14 Dec 04:32:08 04:33:38 12° 68° (ENE) 04:35:07 437.465
FALCONSAT 3 14 Dec 04:41:00 04:44:16 30° 211° (SSW) 04:47:32 435.103
CUBESAT XI-V 14 Dec 04:47:16 04:51:01 24° 263° (W) 04:54:47 437.345
YUBILEINY 14 Dec 04:50:39 04:57:39 26° 285° (WNW) 05:04:44 435.215
JUGNU 14 Dec 04:54:42 04:59:54 33° 174° (S) 05:05:09 437.505
KKS-1 14 Dec 05:20:09 05:24:32 57° 259° (W) 05:28:56 437.445
CUTE-I 14 Dec 05:28:52 05:31:30 14° 94° (E) 05:34:06 437.470
DOVE 4 14 Dec 05:32:17 05:36:36 58° 284° (WNW) 05:40:44 437.250
LilacSat-2 14 Dec 05:34:56 05:37:43 19° 96° (E) 05:40:29 437.200
